STARLINK-2472

Last updated on Sat May 08 2021 00:02:04 GMT+0000 (Coordinated Universal Time)

1 48130U 21027AQ 21127.58334491 -.00969818 00000-0 -18138-1 0 9993 2 48130 53.0479 192.4375 0001235 74.5744 219.4821 15.50678890 1769

Satellite not in orbit